Vorticity
1 1 9 -1 4 1 3 4 9 11 3 3 9 7 9 9 6 4 3 5 5 5 6 7 5 5 10 6 5 6 8 4 5 15 1 20 -2 -9 14 20 16 7 18
5 -0 17 1 11 7 7 7 5 6 1 4 9 9 6 5 8 9 4 4 6 6 4 6 8 3 11 4 6 6 8 2 8 13 4 10 10 12 29 3 5 -2 -14
-0 7 11 18 3 6 7 5 3 2 3 5 8 12 9 7 7 8 4 6 6 7 6 6 8 3 9 6 7 5 8 4 11 5 2 33 25 5 28 0 21 -5 -0
19 15 2 -2 8 3 4 3 4 7 7 6 5 10 14 7 7 5 5 8 7 8 9 8 8 6 8 7 7 5 8 5 9 8 12 16 1 4 39 10 3 9 1
4 26 14 4 6 3 8 9 1 8 7 4 6 9 7 6 6 6 5 3 6 9 8 7 7 7 8 6 8 6 5 3 13 8 7 4 16 -4 24 19 13 -4 14
-6 9 7 3 3 1 3 0 13 7 7 5 9 11 4 4 12 10 6 7 8 9 7 7 8 5 9 7 8 7 4 4 10 17 16 12 18 6 -2 24 22 9 11
5 5 -11 -6 -6 -3 -1 1 5 6 10 4 7 8 2 3 10 13 10 7 6 9 9 8 10 5 6 8 9 7 -0 9 14 22 22 14 9 4 4 31 5 7 6
30 31 5 6 26 6 8 -2 4 2 7 9 8 8 3 4 11 11 10 10 10 10 11 12 11 5 7 8 9 6 5 5 16 21 18 19 11 6 18 10 24 14 7
9 10 21 8 31 29 19 16 17 19 0 3 8 7 5 7 12 9 8 6 9 5 10 14 8 5 8 7 8 3 7 4 16 18 18 19 8 9 27 27 9 -0 5
4 1 11 11 8 10 7 16 15 7 16 8 9 9 7 14 9 8 9 8 3 6 11 6 4 8 9 6 10 3 5 7 17 17 10 3 9 -2 3 36 10 5 17
17 3 9 -14 16 2 16 14 15 14 17 20 12 9 9 12 8 9 8 4 7 10 7 7 7 9 8 5 11 3 6 8 11 18 13 6 6 0 34 42 14 25 20
15 9 2 8 13 16 31 16 9 10 12 9 20 13 11 11 8 9 11 10 9 10 7 5 4 8 9 5 9 3 10 5 7 15 18 10 8 5 -3 3 16 14 5
27 12 38 22 13 10 5 2 4 8 13 11 10 11 9 10 11 9 6 6 8 9 5 5 7 7 9 5 10 4 7 7 12 16 25 15 8 1 5 -1 -2 0 16
0 14 7 12 5 14 19 20 17 12 12 11 8 10 6 5 8 10 8 9 11 8 7 9 6 9 9 5 9 4 9 9 11 1 39 27 7 13 13 3 -0 4 4
18 18 13 9 10 8 7 7 10 13 10 9 11 11 14 16 12 12 11 15 13 9 7 9 6 8 9 5 10 4 9 8 7 11 19 15 29 18 12 21 5 4 5
4 6 8 9 11 10 14 10 17 17 15 15 12 11 10 6 10 12 18 22 19 11 12 10 7 7 7 6 10 5 7 13 4 4 8 7 20 29 24 15 17 12 -4
9 12 12 11 10 7 5 11 14 13 14 10 8 7 4 7 11 12 7 6 13 9 8 8 7 8 6 7 10 6 7 14 12 10 11 6 7 3 43 16 26 10 30
9 7 9 7 10 8 7 7 8 7 9 8 6 6 5 5 17 20 15 17 11 13 9 9 9 5 5 7 11 4 6 10 8 10 12 9 6 7 7 5 -0 1 1
6 10 9 8 9 7 6 7 9 9 11 9 12 13 22 34 26 23 38 17 18 15 12 7 9 4 4 8 11 5 6 5 6 7 7 8 10 11 12 13 10 8 8
6 7 9 7 6 13 11 12 11 12 15 16 20 21 21 15 18 17 23 18 20 24 12 8 8 4 7 10 7 5 7 3 2 3 1 6 4 3 7 5 5 5 4
5 8 12 10 15 5 14 15 12 19 16 26 33 29 37 24 14 21 15 13 11 12 10 6 3 6 -1 20 2 6 8 5 4 3 3 5 3 6 8 2 5 6 7
10 11 13 12 7 13 16 13 18 8 19 36 -5 45 8 1 18 22 22 13 11 10 18 -7 7 4 8 25 -2 6 8 3 6 4 8 6 7 10 5 7 11 13 8
10 9 9 11 16 16 18 26 22 24 -5 43 47 21 3 -1 4 13 21 -30 -12 24 18 4 15 22 34 16 0 11 6 9 5 5 3 -7 14 1 17 10 6 5 5
10 11 13 15 14 -1 6 8 20 29 21 21 23 36 36 -3 -9 17 -9 23 5 11 -9 -5 11 52 54 4 -4 7 9 6 34 -1 -5 -4 0 29 5 19 10 12 15
7 10 10 16 13 4 4 -0 7 11 17 -5 30 25 28 49 12 19 24 -1 -11 -13 44 -9 2 18 -2 5 -3 16 17 16 29 12 15 49 26 -12 21 -8 3 -11 -5
14 18 5 14 23 20 5 8 -4 10 10 21 10 11 32 27 34 21 15 8 25 33 13 12 6 30 -12 33 33 7 29 3 7 2 35 -13 9 1 3 10 13 13 13
Height
5727 5733 5735 5738 5739 5745 5747 5750 5756 5760 5761 5766 5766 5765 5766 5767 5769 5768 5768 5769 5769 5768 5768 5768 5768 5769 5767 5766 5765 5764 5763 5762 5761 5759 5758 5756 5755 5756 5757 5758 5762 5767 5767
5714 5719 5724 5727 5730 5734 5737 5740 5746 5750 5752 5755 5760 5758 5757 5760 5763 5760 5760 5762 5762 5762 5761 5761 5762 5762 5761 5760 5759 5758 5757 5757 5754 5753 5751 5750 5749 5749 5748 5752 5757 5760 5762
5704 5707 5711 5714 5719 5724 5727 5729 5736 5739 5741 5744 5749 5752 5751 5752 5755 5755 5754 5753 5754 5754 5754 5755 5755 5755 5754 5754 5752 5751 5751 5750 5749 5746 5745 5742 5744 5742 5743 5746 5751 5754 5757
5694 5697 5698 5704 5712 5715 5719 5722 5727 5730 5730 5732 5735 5741 5743 5744 5745 5745 5745 5745 5746 5747 5747 5748 5748 5747 5747 5747 5747 5744 5744 5744 5741 5738 5738 5738 5737 5736 5735 5739 5744 5747 5750
5684 5685 5687 5691 5697 5704 5708 5710 5719 5721 5722 5722 5723 5728 5733 5736 5736 5735 5736 5736 5737 5739 5740 5740 5741 5741 5740 5741 5740 5738 5737 5736 5734 5732 5731 5731 5731 5731 5729 5731 5736 5739 5743
5668 5671 5672 5675 5684 5690 5695 5700 5707 5709 5711 5715 5717 5719 5722 5725 5727 5727 5727 5727 5727 5730 5731 5732 5734 5733 5733 5734 5733 5732 5730 5728 5726 5724 5721 5722 5724 5725 5726 5726 5729 5732 5736
5659 5656 5661 5668 5673 5678 5682 5689 5695 5701 5700 5702 5705 5707 5710 5714 5716 5717 5717 5718 5719 5722 5722 5723 5725 5726 5725 5727 5726 5725 5723 5719 5717 5715 5713 5713 5716 5718 5720 5720 5722 5726 5729
5644 5648 5655 5661 5664 5667 5671 5674 5682 5685 5689 5692 5695 5697 5698 5703 5706 5707 5707 5709 5711 5713 5713 5715 5716 5717 5718 5719 5718 5717 5716 5712 5709 5708 5706 5706 5709 5712 5712 5712 5715 5718 5721
5633 5638 5647 5650 5652 5654 5658 5665 5666 5672 5676 5680 5684 5687 5689 5692 5694 5696 5697 5699 5702 5703 5705 5706 5706 5708 5710 5711 5711 5710 5709 5706 5703 5702 5701 5702 5703 5704 5704 5705 5708 5711 5713
5624 5632 5637 5637 5643 5649 5652 5652 5654 5658 5663 5668 5672 5674 5679 5682 5683 5686 5688 5689 5693 5693 5696 5698 5698 5700 5702 5703 5703 5704 5702 5700 5698 5697 5696 5697 5699 5698 5698 5699 5701 5703 5705
5622 5625 5630 5636 5639 5638 5640 5642 5643 5647 5651 5656 5659 5663 5668 5673 5671 5675 5678 5679 5682 5684 5687 5688 5689 5692 5694 5695 5696 5697 5696 5694 5693 5692 5691 5692 5693 5693 5692 5693 5695 5697 5698
5620 5623 5625 5627 5627 5630 5632 5634 5634 5638 5640 5642 5648 5653 5656 5660 5660 5664 5667 5669 5671 5675 5677 5678 5680 5683 5685 5687 5688 5689 5688 5687 5687 5686 5686 5686 5687 5688 5689 5690 5689 5690 5692
5611 5614 5616 5618 5619 5621 5623 5626 5626 5629 5631 5634 5637 5640 5644 5647 5650 5652 5655 5658 5661 5664 5665 5668 5671 5674 5676 5678 5680 5681 5681 5681 5680 5678 5679 5679 5680 5681 5684 5685 5685 5686 5687
5604 5606 5609 5610 5612 5614 5615 5617 5618 5620 5622 5624 5626 5629 5632 5635 5638 5641 5644 5646 5650 5653 5654 5658 5661 5664 5668 5670 5672 5674 5674 5674 5673 5673 5671 5671 5673 5674 5677 5680 5681 5682 5683
5599 5600 5600 5603 5605 5607 5607 5609 5610 5612 5612 5614 5616 5618 5621 5623 5625 5629 5631 5636 5639 5641 5644 5648 5650 5655 5658 5662 5664 5666 5666 5668 5667 5668 5667 5666 5665 5667 5669 5671 5674 5676 5678
5596 5596 5597 5598 5598 5598 5599 5600 5599 5601 5603 5604 5605 5607 5610 5612 5613 5617 5620 5623 5627 5628 5634 5637 5641 5645 5649 5653 5657 5658 5659 5660 5661 5663 5662 5661 5658 5660 5661 5664 5665 5668 5670
5590 5591 5591 5591 5590 5590 5588 5587 5588 5589 5590 5591 5592 5595 5597 5599 5602 5605 5608 5611 5613 5617 5622 5626 5631 5636 5640 5644 5648 5650 5652 5653 5654 5656 5657 5656 5656 5656 5655 5658 5659 5662 5664
5583 5583 5583 5583 5582 5580 5579 5577 5577 5577 5578 5579 5580 5580 5582 5585 5587 5590 5592 5595 5599 5604 5610 5615 5621 5626 5631 5636 5640 5642 5644 5646 5648 5649 5650 5651 5651 5652 5654 5655 5656 5657 5659
5574 5575 5575 5574 5573 5571 5569 5567 5566 5567 5566 5566 5565 5565 5566 5567 5570 5573 5577 5582 5587 5593 5600 5606 5613 5619 5624 5628 5631 5634 5637 5640 5642 5643 5644 5645 5646 5647 5649 5650 5651 5653 5653
5568 5568 5567 5566 5564 5562 5559 5557 5555 5554 5552 5550 5550 5551 5553 5557 5559 5563 5568 5571 5577 5585 5592 5599 5605 5610 5615 5619 5622 5625 5629 5632 5635 5636 5637 5638 5640 5642 5643 5644 5645 5646 5647
5564 5563 5561 5559 5556 5553 5550 5548 5545 5542 5539 5537 5538 5541 5543 5548 5552 5556 5560 5565 5571 5578 5584 5591 5597 5601 5605 5608 5613 5617 5620 5623 5626 5628 5630 5631 5632 5633 5635 5636 5638 5639 5639
5558 5556 5555 5552 5550 5547 5544 5541 5538 5535 5530 5528 5529 5532 5537 5541 5544 5548 5553 5559 5565 5570 5575 5581 5587 5592 5595 5598 5603 5607 5610 5613 5615 5619 5621 5623 5623 5624 5625 5626 5628 5628 5628
5551 5550 5548 5547 5545 5543 5540 5535 5532 5529 5528 5521 5521 5525 5529 5533 5537 5542 5546 5551 5558 5564 5568 5573 5578 5582 5583 5586 5593 5597 5600 5604 5607 5610 5612 5613 5613 5613 5614 5615 5616 5616 5617
5545 5544 5543 5542 5541 5540 5537 5534 5530 5527 5525 5521 5517 5519 5522 5526 5532 5536 5541 5546 5552 5555 5559 5563 5566 5571 5572 5576 5583 5587 5589 5592 5595 5599 5600 5602 5603 5602 5604 5604 5604 5604 5605
5540 5539 5538 5537 5536 5536 5535 5533 5529 5525 5521 5519 5516 5516 5517 5520 5524 5530 5534 5540 5543 5547 5550 5552 5558 5563 5567 5569 5572 5575 5578 5581 5583 5587 5589 5590 5591 5592 5593 5593 5593 5592 5592
5534 5534 5533 5532 5532 5532 5531 5528 5525 5523 5521 5519 5515 5513 5515 5517 5519 5522 5527 5533 5536 5540 5544 5549 5554 5555 5557 5561 5562 5566 5569 5572 5573 5576 5577 5579 5579 5578 5579 5579 5580 5580 5579